Daytona Beach, FL

7:53 AM EDT on May 30, 2017 (GMT -0400)
Daytona Beach International

Weather History for KDAB - June, 2013

Change the Weather History Date:

Monday, June 3, 2013

  Actual Average Record
Temperature  
Mean Temperature 80 °F 79 °F  
Max Temperature 88 °F 87 °F 100 °F (1998)
Min Temperature 72 °F 70 °F 57 °F (1951)
Degree Days  
Heating Degree Days 0 0  
Month to date heating degree days 0 0  
Since 1 June heating degree days 0 0  
Since 1 July heating degree days 694 809  
Cooling Degree Days 15 14  
Month to date cooling degree days 45 40  
Year to date cooling degree days 697 641  
Since 1 June cooling degree days 45 40  
Growing Degree Days 30 (Base 50)    
Moisture  
Dew Point 72 °F    
Average Humidity 76    
Maximum Humidity 93    
Minimum Humidity 59    
Precipitation  
Precipitation 0.20 in 0.18 in 1.96 in (1992)
Month to date precipitation 0.78 0.55  
Year to date precipitation 15.61 15.62  
Sea Level Pressure  
Sea Level Pressure 29.95 in    
Wind  
Wind Speed 4 mph (South)    
Max Wind Speed 12 mph    
Max Gust Speed 16 mph    
Visibility 7 miles    
Events Fog , Rain , Thunderstorm    
T = Trace of Precipitation, MM = Missing Value Source: NWS Daily Summary

Daily Weather History Graph

Daily Weather History Graph

Search for Another Location

Airport or City:

Trip Planner

Search our weather history database for the weather conditions in past years. The results will help you decide how hot, cold, wet, or windy it might be!

Date:

Astronomy

Jun. 03, 2013 Rise Set
Actual Time 6:25 AM EDT 8:20 PM EDT
Civil Twilight 5:58 AM EDT 8:46 PM EDT
Nautical Twilight 5:25 AM EDT 9:19 PM EDT
Astronomical Twilight 4:51 AM EDT 9:53 PM EDT
Moon 3:02 AM EDT (6/3) 4:05 PM EDT (6/3)
Length of Visible Light 14h 48m
Length of Day
13h 55m
Waning Crescent, 22% of the Moon is Illuminated
Jun 3
Waning Crescent
Jun 8
New
Jun 16
First Quarter
Jun 23
Full
Jun 30
Last Quarter

Hourly Weather History & Observations

Time (EDT) Temp. Heat Index Dew Point Humidity Pressure Visibility Wind Dir Wind Speed Gust Speed Precip Events Conditions
12:53 AM 73.9 °F - 71.1 °F 91% 29.95 in 10.0 mi South 5.8 mph - N/A   Scattered Clouds
1:53 AM 73.9 °F - 71.1 °F 91% 29.94 in 10.0 mi SSW 3.5 mph - N/A   Scattered Clouds
2:26 AM 73.4 °F - 71.6 °F 94% 29.94 in 10.0 mi Calm Calm - N/A   Scattered Clouds
2:53 AM 73.0 °F - 71.1 °F 93% 29.93 in 10.0 mi Calm Calm - N/A   Scattered Clouds
3:16 AM 73.4 °F - 71.6 °F 94% 29.94 in 10.0 mi Calm Calm - N/A   Mostly Cloudy
3:46 AM 73.4 °F - 71.6 °F 94% 29.93 in 10.0 mi Calm Calm - N/A   Scattered Clouds
3:53 AM 73.0 °F - 71.1 °F 93% 29.93 in 10.0 mi Calm Calm - N/A   Mostly Cloudy
4:19 AM 73.4 °F - 71.6 °F 94% 29.93 in 10.0 mi Calm Calm - N/A   Scattered Clouds
4:53 AM 73.0 °F - 71.1 °F 93% 29.93 in 10.0 mi Calm Calm - N/A   Scattered Clouds
5:04 AM 73.4 °F - 71.6 °F 94% 29.93 in 2.0 mi South 3.5 mph - N/A   Mostly Cloudy
5:16 AM 73.4 °F - 71.6 °F 94% 29.94 in 1.5 mi South 4.6 mph - N/A   Overcast
5:32 AM 73.4 °F - 71.6 °F 94% 29.94 in 0.5 mi SSW 3.5 mph - N/A Fog Fog
5:53 AM 73.0 °F - 71.1 °F 93% 29.94 in 0.8 mi Calm Calm - N/A   Mostly Cloudy
6:53 AM 73.0 °F - 71.1 °F 93% 29.95 in 0.8 mi Calm Calm - N/A   Mostly Cloudy
7:06 AM 73.4 °F - 71.6 °F 94% 29.95 in 1.0 mi SSW 4.6 mph - N/A   Mostly Cloudy
7:10 AM 73.4 °F - 71.6 °F 94% 29.95 in 3.0 mi SSW 4.6 mph - N/A   Mostly Cloudy
7:17 AM 73.4 °F - 71.6 °F 94% 29.95 in 2.5 mi SSW 3.5 mph - N/A   Mostly Cloudy
7:25 AM 73.4 °F - 71.6 °F 94% 29.95 in 8.0 mi SSW 3.5 mph - N/A   Mostly Cloudy
7:53 AM 73.9 °F - 72.0 °F 93% 29.96 in 10.0 mi SSW 3.5 mph - N/A   Mostly Cloudy
8:53 AM 77.0 °F - 73.9 °F 90% 29.97 in 10.0 mi Calm Calm - N/A   Scattered Clouds
9:53 AM 82.9 °F 88.8 °F 73.0 °F 72% 29.97 in 10.0 mi South 4.6 mph - N/A   Mostly Cloudy
10:19 AM 82.4 °F 87.2 °F 71.6 °F 70% 29.97 in 10.0 mi SW 6.9 mph - N/A   Mostly Cloudy
10:53 AM 84.9 °F 90.7 °F 72.0 °F 65% 29.97 in 10.0 mi Variable 5.8 mph - N/A   Mostly Cloudy
11:53 AM 87.1 °F 93.6 °F 72.0 °F 61% 29.96 in 10.0 mi Variable 6.9 mph - N/A   Mostly Cloudy
12:53 PM 87.1 °F 93.6 °F 72.0 °F 61% 29.96 in 10.0 mi SE 3.5 mph - 0.00 in   Mostly Cloudy
1:53 PM 84.9 °F 92.1 °F 73.9 °F 69% 29.94 in 10.0 mi ESE 6.9 mph - 0.00 in Rain Light Rain
2:53 PM 84.9 °F 93.3 °F 75.0 °F 72% 29.92 in 10.0 mi East 8.1 mph 16.1 mph 0.00 in   Mostly Cloudy
3:53 PM 82.0 °F 88.6 °F 75.0 °F 79% 29.91 in 10.0 mi ESE 5.8 mph - 0.04 in   Overcast
4:53 PM 82.9 °F 89.4 °F 73.9 °F 74% 29.89 in 10.0 mi Variable 4.6 mph 16.1 mph N/A   Overcast
5:53 PM 82.0 °F 87.4 °F 73.0 °F 74% 29.89 in 10.0 mi SE 5.8 mph - N/A   Overcast
6:51 PM 82.4 °F 88.2 °F 73.4 °F 74% 29.90 in 10.0 mi East 4.6 mph - N/A Thunderstorm Thunderstorm
6:53 PM 82.0 °F 87.9 °F 73.9 °F 76% 29.90 in 10.0 mi East 5.8 mph - N/A Thunderstorm Thunderstorm
7:13 PM 80.6 °F 85.4 °F 73.4 °F 79% 29.93 in 7.0 mi South 13.8 mph 18.4 mph N/A Thunderstorm Thunderstorm
7:23 PM 75.2 °F - 71.6 °F 89% 29.95 in 1.5 mi WSW 18.4 mph 28.8 mph 0.01 in Rain , Thunderstorm Heavy Thunderstorms and Rain
7:32 PM 73.4 °F - 69.8 °F 88% 29.95 in 1.5 mi SW 10.4 mph 28.8 mph 0.09 in Rain , Thunderstorm Heavy Thunderstorms and Rain
7:53 PM 73.9 °F - 69.1 °F 85% 29.94 in 1.5 mi Calm Calm - 0.16 in Rain , Thunderstorm Heavy Thunderstorms and Rain
8:00 PM 73.4 °F - 69.8 °F 88% 29.94 in 4.0 mi Calm Calm - 0.03 in Rain , Thunderstorm Heavy Thunderstorms and Rain
8:53 PM 75.2 °F - 69.8 °F 83% 29.99 in 10.0 mi NNE 11.5 mph - N/A   Mostly Cloudy
9:53 PM 75.9 °F - 72.0 °F 87% 30.00 in 7.0 mi ENE 4.6 mph - N/A Rain , Thunderstorm Light Thunderstorms and Rain
10:53 PM 75.7 °F - 69.6 °F 81% 30.02 in 10.0 mi SE 11.5 mph - N/A Thunderstorm Thunderstorm
11:33 PM 75.2 °F - 69.8 °F 83% 30.01 in 10.0 mi SSW 9.2 mph - N/A   Overcast
11:53 PM 73.4 °F - 71.6 °F 94% 30.01 in 8.0 mi South 8.1 mph - N/A   Mostly Cloudy